Location: ?e?ovice
(49.7932°N, 14.7940°E)
Time: 12:41:21
(UTC+00:00)

Daily predictions for brighter satellites

Satellite Brightness Start Highest point End
(mag) Time Altitude Azimuth Time Altitude Azimuth Time Altitude Azimuth
SL-8 Rocket 4.4 15:29:57 10° N 15:35:52 42° ENE 15:41:46 10° SE
Cosmos 1151 Rocket 4.3 15:32:55 10° SE 15:36:11 22° E 15:39:28 10° NE
CZ-4C R/B 3.8 15:33:21 10° NNE 15:36:44 35° E 15:40:03 10° SSE
Cosmos 2341 Rocket 4.2 15:31:05 10° N 15:37:16 54° ENE 15:43:28 10° SSE
Cosmos 2278 Rocket 4.1 15:33:25 10° NW 15:38:35 37° WSW 15:43:44 10° S
Radarsat Rocket 4.3 15:33:30 10° SE 15:39:39 64° ENE 15:46:38 10° NNW
CZ-4B DEB 4.2 15:37:03 10° SSE 15:42:30 76° ENE 15:47:59 10° NNW
Cosmos 2360 Rocket 4.2 15:40:19 10° WNW 15:44:06 18° NW 15:47:54 10° N
USA 281 4.2 15:39:35 10° E 15:44:34 24° NE 15:49:34 10° N
Cosmos 2333 Rocket 3.7 15:39:45 10° WSW 15:44:44 31° NW 15:49:44 10° NNE
Cosmos 2219 Rocket 3.6 15:42:01 10° WSW 15:47:02 31° NW 15:52:03 10° NNE
Cosmos 2285 Rocket 4.0 15:41:02 10° NNW 15:47:24 64° ENE 15:53:42 10° SE
COSMO-SKYMED 1 4.5 15:46:42 10° ENE 15:48:10 11° E 15:49:37 10° ESE
TELKOM 3 3.2 15:46:58 10° W 15:49:56 90° N 15:52:24 10° E
COSMOS 2428 4.1 15:46:43 10° WSW 15:51:54 34° NW 15:57:06 10° NNE
CORIOLIS 4.4 15:47:55 10° SE 15:53:07 49° ENE 15:58:21 10° N
USA 267 3.7 15:47:36 10° ENE 15:53:49 49° N 16:00:05 10° WNW
X-37B 2.8 15:52:07 10° SSW 15:54:15 17° SSE 15:56:23 10° ESE
PAYLOAD B 4.2 15:49:56 10° SSE 15:55:30 80° ENE 16:01:05 10° NNW
H-2A R/B 3.7 15:55:36 10° E 15:57:53 13° NE 16:00:09 10° NNE
Cosmos 1805 Rocket 4.1 15:53:51 10° NNW 15:58:16 65° W 16:02:39 10° S
Cosmos 1356 3.7 15:56:26 10° NNW 15:59:52 72° W 16:03:17 10° S
Meteor 1-4 Rocket 3.8 15:57:51 10° SE 16:00:39 22° E 16:03:14 11° NE
Cosmos 44 Rocket 4.3 15:56:42 10° NNW 16:01:16 31° NE 16:05:52 10° E
Meteor 1-20 Rocket 4.3 15:55:53 10° N 16:01:45 65° ENE 16:07:30 10° SSE
BREEZE-M DEB (TANK) 4.4 15:58:58 10° WSW 16:03:09 86° S 16:18:26 10° E
Cosmos 1328 Rocket 4.1 15:59:50 10° SSE 16:03:46 35° E 16:07:45 10° NNE
Cosmos 2181 Rocket 4.2 15:57:50 10° SSE 16:03:58 51° E 16:10:05 10° NNE
Cosmos 1933 Rocket 4.5 16:00:35 10° N 16:04:25 27° ENE 16:08:14 10° SE
Cosmos 1939 Rocket 3.9 16:01:23 10° ESE 16:04:30 23° ENE 16:07:40 10° NNE
Cosmos 1666 Rocket 3.5 16:01:14 10° N 16:05:41 75° E 16:10:07 10° SSE
Cosmos 389 Rocket 2.5 16:03:17 10° SSW 16:06:42 80° WNW 16:10:08 10° N
CZ-4 R/B 3.0 16:05:25 12° E 16:06:52 15° ENE 16:09:07 10° NNE
Cosmos 2237 Rocket 2.9 16:01:26 10° SW 16:06:56 54° NW 16:12:30 10° NNE
Cosmos 44 4.3 16:02:16 10° NW 16:07:28 58° WSW 16:12:46 10° SSE
NOAA 11 4.3 16:03:37 10° SE 16:08:50 50° ENE 16:14:06 10° N
Cosmos 1602 4.2 16:05:26 10° N 16:09:08 38° ENE 16:12:47 10° SE
CZ-4B R/B 3.1 16:04:40 10° SSE 16:09:58 76° ENE 16:15:16 10° NNW
H-2A R/B 2.8 16:08:39 10° S 16:12:51 71° WSW 16:16:55 10° NNW
Cosmos 2369 Rocket 2.3 16:09:21 10° NNW 16:14:59 55° NE 16:20:31 10° SE
Cosmos 1943 4.4 16:11:20 10° SSE 16:15:28 21° E 16:18:07 15° ENE
ADEOS Rocket 3.8 16:08:29 10° NNE 16:16:16 80° WNW 16:23:58 10° SSW
Cosmos 1943 Rocket 2.1 16:11:00 10° NNW 16:16:36 83° ENE 16:22:12 10° SSE
NOAA 12 4.1 16:14:18 10° SSE 16:19:37 85° ENE 16:24:58 10° NNW
CENTAUR R/B 4.2 16:18:15 10° ESE 16:20:12 12° E 16:20:30 12° E
H-2A R/B 1.9 16:16:30 10° NNE 16:20:44 76° ESE 16:25:01 10° S
CZ-2D R/B 4.3 16:18:46 10° ESE 16:21:54 25° ENE 16:25:04 10° N
Okean O Rocket 1.6 16:22:03 10° SSE 16:26:25 90° SE 16:30:50 10° NNW
ARGOS 4.5 16:27:01 18° ENE 16:27:24 18° NE 16:30:53 10° NNE
Cosmos 1782 3.1 16:23:49 10° SSE 16:27:34 42° E 16:31:07 11° NNE
Okean-O 3.6 16:24:33 10° ESE 16:28:08 25° ENE 16:31:45 10° N
Cosmos 1633 Rocket 3.2 16:25:32 10° NNW 16:29:55 76° W 16:34:15 10° S
ISS -3.6 16:28:02 10° WNW 16:31:23 61° N 16:32:58 28° ENE
Cosmos 1933 3.4 16:29:11 10° SSW 16:33:14 81° W 16:37:21 10° N
Cosmos 2218 Rocket 4.0 16:30:08 10° N 16:36:20 89° E 16:42:29 10° S
SKYMED 2 4.3 16:34:31 20° NE 16:36:45 32° E 16:40:38 10° SSE
Cosmos 2366 rocket 3.9 16:31:05 10° N 16:37:18 88° E 16:43:27 10° S
ERS-2 2.6 16:36:10 24° NE 16:37:48 37° E 16:41:14 10° SSE
Cosmos 1869 Rocket 4.5 16:35:20 10° N 16:39:08 26° ENE 16:40:22 23° E
Cosmos 1867 4.2 16:35:05 10° WSW 16:40:25 54° NW 16:44:54 15° NNE
Cosmos 489 Rocket 4.5 16:37:57 10° S 16:44:03 64° ESE 16:49:47 12° NNE
Cosmos 371 Rocket 4.1 16:44:29 10° N 16:48:46 29° NE 16:49:18 28° ENE
Lacrosse 5 rocket 1.3 16:45:17 10° WSW 16:48:52 57° NNW 16:50:15 32° NE
Cosmos 773 Rocket 4.1 16:44:31 10° SSW 16:49:48 83° WNW 16:54:45 12° NNE
NOSS 3-2 (A) 4.2 16:47:30 10° S 16:52:23 30° ESE 16:54:01 27° E
Feng Yun 1-1 Rocket 4.2 16:51:13 10° SSE 16:56:57 85° ENE 17:02:34 10° NNW
CZ-4B R/B 1.0 16:56:26 42° NNE 16:57:22 80° ESE 17:00:31 10° S
SL-16 R/B 2.8 16:54:31 10° SW 17:00:04 55° NW 17:05:04 13° NNE
USA 215 4.0 16:59:21 26° E 17:01:52 35° SE 17:07:44 10° SSW
BREEZE-M DEB (TANK) 2.8 17:01:50 10° WSW 17:03:26 37° SSW 17:03:26 37° SSW
Cosmos 1500 3.0 17:01:43 10° N 17:05:32 71° ENE 17:09:21 10° SSE
MINOTAUR IV R/B 4.5 17:03:07 10° SSW 17:07:39 84° ESE 17:09:43 33° NNE
YAOGAN 1 2.7 17:09:19 47° E 17:09:33 48° ENE 17:13:44 10° N
Cosmos 1656 Rocket 3.5 17:04:51 10° NNW 17:10:33 79° ENE 17:16:07 10° SSE
SL-24 DEB 4.1 17:06:25 10° N 17:11:11 76° E 17:15:52 10° S
USA 238 DEB 4.1 17:05:29 10° S 17:11:29 39° ESE 17:13:06 34° E
USA 238 4.1 17:05:36 10° S 17:11:35 39° ESE 17:13:10 34° E
Cosmos 1470 Rocket 4.5 17:08:11 10° NNW 17:12:22 48° W 17:16:31 10° SSW
Cosmos 1151 Rocket 4.2 17:09:27 10° SW 17:13:30 41° WNW 17:17:33 10° N
MOS 1 Rocket 3.9 17:13:25 39° ENE 17:14:21 43° E 17:19:27 10° SSE
NOAA 15 4.5 17:13:27 10° SSE 17:18:40 64° ENE 17:23:54 10° N
Cosmos 2263 4.3 17:13:44 10° NNW 17:19:21 73° WSW 17:24:55 10° SSE
Cosmos 158 Rocket 4.0 17:16:07 10° S 17:20:52 50° ESE 17:20:54 50° ESE
Cosmos 1934 Rocket 4.1 17:15:00 10° N 17:21:15 53° ENE 17:27:22 10° SSE
Cosmos 1515 Rocket 3.9 17:17:03 10° SSW 17:21:24 66° WNW 17:25:08 14° N
CZ-2C R/B 2.7 17:16:40 10° SSE 17:21:37 74° ENE 17:26:25 10° N
SWAS 4.3 17:19:30 10° SSW 17:23:45 80° ESE 17:24:10 70° ENE
Cosmos 923 Rocket 4.0 17:19:11 10° S 17:24:14 56° ESE 17:24:49 53° E
Cosmos 1238 Rocket 2.8 17:20:37 10° N 17:24:33 76° E 17:29:20 10° SSE
COSMO-SKYMED 1 2.5 17:23:06 34° NNE 17:24:58 88° W 17:29:19 10° SSW
USA 281 3.1 17:21:41 10° SE 17:28:14 79° ENE 17:34:50 10° NNW
SAR-Lupe-4 3.9 17:29:14 58° SSW 17:29:14 58° SSW 17:32:10 10° SSW
CSL-04 Debris 4.2 17:27:30 41° ESE 17:29:07 57° ENE 17:34:30 10° N
X-37B 2.4 17:27:26 10° WSW 17:29:28 27° SSW 17:29:28 27° SSW
Nadezhda 3 Rocket 3.9 17:24:24 10° S 17:30:45 79° E 17:37:09 10° NNE
Helios 1A Rocket 2.8 17:33:25 75° NNW 17:33:25 75° NNW 17:37:09 10° NNW
Meteor 2-6 Rocket 4.0 17:28:17 10° S 17:33:51 86° E 17:37:14 24° NNE
Cosmos 2228 Rocket 3.0 17:29:25 10° S 17:33:57 85° E 17:34:29 69° NNE
Meteor 1-4 Rocket 4.4 17:32:22 10° SW 17:35:31 29° WNW 17:37:26 18° NNW
USA 267 3.2 17:34:11 44° E 17:36:27 75° NNE 17:43:00 10° WNW
H-2A R/B 1.9 17:35:18 51° SE 17:36:28 68° ENE 17:41:32 10° N
Cosmos 1821 Rocket 4.1 17:30:56 10° NNW 17:37:11 78° W 17:43:30 10° S
Cosmos 1812 3.5 17:33:56 10° S 17:36:35 43° SSW 17:36:35 43° SSW
Cosmos 1939 Rocket 4.3 17:35:39 10° SSW 17:39:15 36° W 17:42:56 10° NNW
Meteor 1-11 Rocket 3.6 17:34:35 10° N 17:40:24 79° ENE 17:46:18 10° SSE
PSLV R/B 4.4 17:42:19 51° SSW 17:42:19 51° SSW 17:45:24 10° SSW
CZ-4 R/B 1.5 17:41:26 71° W 17:41:26 71° W 17:45:26 10° NNW
Cosmos 44 Rocket 3.6 17:38:05 10° NW 17:43:14 69° SW 17:45:09 38° SSE
CSL-04 Rocket 3.5 17:44:04 68° ENE 17:44:04 68° ENE 17:49:12 10° N
Cosmos 1980 Rocket 4.4 17:44:37 10° N 17:45:17 11° N 17:45:17 11° N
Lacrosse 4 Rocket 4.0 17:46:54 10° S 17:46:59 10° S 17:46:59 10° S
Cosmos 1680 Rocket 3.6 17:45:51 10° SSW 17:50:18 60° SSE 17:50:18 60° SSE
Cosmos 1603 3.8 17:49:57 10° SW 17:55:33 70° WNW 17:56:56 50° N
Cosmos 2369 Rocket 4.1 17:53:52 10° NW 17:58:42 29° WSW 18:03:28 10° SSW
Cosmos 1943 3.3 17:53:16 10° SW 17:58:55 74° WNW 17:59:58 58° N
Cosmos 1371 Rocket 4.1 17:58:58 10° NNW 18:03:40 71° NW 18:03:40 71° NW
Okean-O 3.7 18:00:10 10° S 18:04:24 44° W 18:08:40 10° NNW
ARGOS 3.7 18:08:32 49° NNW 18:08:32 49° NNW 18:12:24 10° NNW
ISS -0.9 18:04:54 10° WNW 18:05:55 18° WNW 18:05:55 18° WNW
CENTAUR R/B 2.9 18:03:17 10° SSW 18:07:44 49° S 18:07:44 49° S
Cosmos 2056 Rocket 3.9 18:05:09 10° NNW 18:09:29 60° NW 18:09:29 60° NW
NOSS 3-2 (C) 4.1 18:11:35 10° SSW 18:15:09 40° S 18:15:09 40° S
Lacrosse 5 rocket 4.1 18:25:25 10° WNW 18:25:53 13° WNW 18:25:53 13° WNW
NOSS 3-2 (A) 4.0 18:36:54 10° SW 18:41:27 53° W 18:41:27 53° W
USA 215 3.6 18:46:42 61° WSW 18:46:42 61° WSW 18:51:56 10° WSW
SL-16 R/B 4.5 18:42:05 10° WNW 18:45:31 16° NNW 18:46:58 15° NNW
USA 238 DEB 4.4 18:55:36 10° WSW 19:00:35 49° W 19:00:35 49° W
USA 238 4.4 18:55:41 10° WSW 19:00:39 49° W 19:00:39 49° W
H-2A R/B 4.4 19:15:56 19° W 19:16:20 20° W 19:20:03 10° NW
USA 267 4.4 19:21:32 38° W 19:21:32 38° W 19:26:00 10° WNW
